Location: Pagani
(40.7500°N, 14.6167°E)
Time: 13:13:28
(UTC+00:00)

Cosmos 2151 - Pass Details

Date: 15 May 2026
Orbit: 556 x 575 km, 82.5° (Epoch: 11 June)

Event Time Altitude Azimuth Distance (km) Brightness Sun altitude
Rises 19:15:47 0° 7° (N) 2,766 6.8 -11.1°
Reaches altitude 10° 19:18:27 10° 24° (NNE) 1,861 5.7 -11.5°
Maximum altitude 19:21:31 20° 73° (ENE) 1,313 4.4 -12.0°
Enters shadow 19:23:11 16° 105° (ESE) 1,487 4.5 -12.2°
